Miscellaneous Local Product
Issued by NWS North Platte, NE

Home | Current Version | Previous Version | Graphics & Text | Print | Product List | Glossary On
Versions: 1 2 3 4 5 6 7 8 9 10 11 12 13 14 15 16 17 18 19 20 21 22 23 24 25 26 27 28 29 30 31 32 33 34 35 36 37 38 39 40 41 42 43 44 45 46 47 48 49 50
000
AXUS43 KLBF 161810
MISLBF


WESTERN AND NORTH CENTRAL NEBRASKA HOURLY WEATHER ROUNDUP
NATIONAL WEATHER SERVICE NORTH PLATTE NE
100 PM CDT MON OCT 16 2017

NOTE: "FAIR" INDICATES FEW OR NO CLOUDS BELOW 12,000 FEET WITH NO
SIGNIFICANT WEATHER AND/OR OBSTRUCTIONS TO VISIBILITY.

NOTE: STATIONS NOT REPORTING VARIABLES SUCH AS SKY/WEATHER OR
PRESSURE ARE PROVIDED BY RAWS AND APRS NETWORKS AND ARE NOT UNDER
NATIONAL WEATHER SERVICE QUALITY CONTROL.

...OBSERVATIONS IN AND NEAR THE EASTERN PANHANDLE OF NEBRASKA...

CITY           SKY/WX    TMP DP  RH WIND       PRES   REMARKS
PINE RIDGE     SUNNY     70  25  18 W9        30.14F
GORDON         FAIR      70  27  20 SW5       30.14F
CHADRON        SUNNY     71  19  14 W10       30.13F
ALLIANCE       SUNNY     69  20  15 MISG      30.16F
SIDNEY         SUNNY     75  23  14 SW14G21   30.20F
CRESCENT LAKE    N/A     71  21  15 SW12        N/A
$$

...OBSERVATIONS IN NORTHERN NEBRASKA AND FAR SOUTHERN SOUTH DAKOTA...

CITY           SKY/WX    TMP DP  RH WIND       PRES   REMARKS
WINNER         FAIR      69  41  36 SW8       30.09F
VALENTINE      CLOUDY    72  30  21 W12       30.11F
THEDFORD       SUNNY     73  29  20 SW10      30.15F
AINSWORTH      SUNNY     69  35  28 SW9       30.12F
O`NEILL        SUNNY     70  38  31 SW17G24   30.14F
ORD              N/A     69  34  27 SW17G28   30.17F
BROKEN BOW     SUNNY     71  35  26 SW17      30.18F
VALENTINE NWR    N/A     66  32  27 SW9         N/A
HALSEY           N/A     69  32  25 S8G16       N/A
BUTTE            N/A     69  37  31 SW12G20     N/A
CHAMBERS         N/A     70  40  33 SW9         N/A
EWING            N/A     71  38  30 SW16G23     N/A
$$

...OBSERVATIONS IN SOUTHWEST NEBRASKA AND FAR NORTHEAST COLORADO...

CITY           SKY/WX    TMP DP  RH WIND       PRES   REMARKS
WRAY           FAIR      77  23  13 SW13      30.22F
HOLYOKE        FAIR      73  32  21 SW8       30.21F
IMPERIAL       SUNNY     75  19  12 SW16G24   30.20F
OGALLALA       SUNNY     67  35  29 W7        30.18F
NORTH PLATTE   SUNNY     74  30  19 SW16      30.18F
MCCOOK         SUNNY     77  30  17 S18G29    30.21F
LEXINGTON      SUNNY     68  35  29 SW18      30.21F
STAPLETON        N/A     64  37  37 SW7G14      N/A
GOTHENBURG       N/A     67  31  26 SW6         N/A
CALLAWAY         N/A     66  36  33 SW16        N/A
$$

...OBSERVATIONS IN CENTRAL LINCOLN COUNTY AREA...

CITY           SKY/WX    TMP DP  RH WIND       PRES   REMARKS
N.P. AIRPORT   SUNNY     74  30  19 SW16      30.18F
N.P. DOWNTOWN    N/A     73  33  23 MISG        N/A
N.P. SOUTHEAST   N/A     72  29  20 SW12G18     N/A
N.P. HILLCREST   N/A     72  32  23 SW13G21     N/A
$$

...SOME OBSERVATIONS FROM AROUND THE REGION...

CITY           SKY/WX    TMP DP  RH WIND       PRES   REMARKS
DENVER         MOSUNNY   74  12   9 W13G18    30.28F
LIMON          SUNNY     74   9   8 SW9       30.29F
ASPEN          SUNNY     58   9  14 NW7       30.49F
LARAMIE        CLOUDY    65  -1   7 W18G31    30.35S
CASPER         CLOUDY    60  18  19 SW24      30.26F
CHEYENNE       CLOUDY    67   6   9 W20G28    30.30F
SCOTTSBLUFF    SUNNY     67  29  24 VRB3      30.19F
GRAND ISLAND   SUNNY     70  36  28 SW18G26   30.22F
OMAHA          SUNNY     68  37  32 S18       30.26F
SIOUX FALLS    MOSUNNY   66  40  38 S15       30.13F
PIERRE         CLOUDY    58  38  47 SW6       30.06F
RAPID CITY     SUNNY     71  29  21 W5        30.11F
BISMARCK       SUNNY     69  35  28 W14G22    29.97S
KANSAS CITY    SUNNY     66  39  37 SW12      30.36F
WICHITA        SUNNY     66  42  41 S14       30.38F
DODGE CITY     SUNNY     70  28  21 S22       30.34F
OKLAHOMA CITY  SUNNY     65  33  30 SE8       30.42F
DALLAS         SUNNY     70  40  33 N9        30.37F
AMARILLO       SUNNY     65  34  31 S15G22    30.42F
$$




USA.gov is the U.S. government's official web portal to all federal, state and local government web resources and services.